Weather History for KMPO - February, 2013

Change the Weather History Date:

Saturday, February 16, 2013

  Actual Average Record
Temperature  
Mean Temperature 25 °F 26 °F  
Max Temperature 31 °F 34 °F 68 °F (1954)
Min Temperature 19 °F 18 °F -14 °F (1943)
Degree Days  
Heating Degree Days 40 39  
Month to date heating degree days 661 642  
Since 1 July heating degree days 4361 4673  
Cooling Degree Days 0 0  
Month to date cooling degree days 0 0  
Year to date cooling degree days 0 0  
Moisture  
Dew Point 19 °F    
Average Humidity 74    
Maximum Humidity 92    
Minimum Humidity 56    
Precipitation  
Precipitation T in 0.10 in 1.20 in (1909)
Month to date precipitation 0.39 1.28  
Year to date precipitation 2.44 4.13  
Sea Level Pressure  
Sea Level Pressure 29.89 in    
Wind  
Wind Speed 10 mph (NNW)    
Max Wind Speed 17 mph    
Max Gust Speed 24 mph    
Visibility 8 miles    
Events Snow    
T = Trace of Precipitation, MM = Missing Value Source: NWS Daily Summary

Daily Weather History Graph

Daily Weather History Graph

Search for Another Location

Airport or City:

Trip Planner

Search our weather history database for the weather conditions in past years. The results will help you decide how hot, cold, wet, or windy it might be!

Date:

Astronomy

Feb. 16, 2013 Rise Set
Actual Time 6:54 AM EST 5:37 PM EST
Civil Twilight 6:26 AM EST 6:05 PM EST
Nautical Twilight 5:54 AM EST 6:37 PM EST
Astronomical Twilight 5:22 AM EST 7:09 PM EST
Moon 10:01 AM EST (2/16) No Moon Set
Length of Visible Light 11h 39m
Length of Day
10h 42m
Waxing Crescent, 39% of the Moon is Illuminated
Feb 16
Waxing Crescent
Feb 17
First Quarter
Feb 25
Full
Mar 4
Last Quarter
Mar 11
New

Hourly Weather History & Observations

Time (EST) Temp. Windchill Dew Point Humidity Pressure Visibility Wind Dir Wind Speed Gust Speed Precip Events Conditions
12:03 AM 30.2 °F 23.4 °F 28.4 °F 93% 29.91 in 1.0 mi NNW 6.9 mph - 0.00 in Snow Light Snow
12:34 AM 30.2 °F 26.7 °F 28.4 °F 93% 29.91 in 1.5 mi NW 3.5 mph - 0.00 in Snow Light Snow
12:41 AM 30.2 °F - 28.4 °F 93% 29.90 in 3.0 mi Calm Calm - 0.00 in Snow Light Snow
12:53 AM 30.0 °F - 28.0 °F 92% 29.95 in 2.5 mi Calm Calm - 0.00 in Snow Light Snow
1:03 AM 30.2 °F 26.7 °F 26.6 °F 86% 29.89 in 1.2 mi NE 3.5 mph - 0.00 in Snow Light Snow
1:11 AM 30.2 °F 26.7 °F 28.4 °F 93% 29.89 in 1.2 mi NNE 3.5 mph - 0.00 in Snow Light Snow
1:22 AM 30.2 °F 23.4 °F 26.6 °F 86% 29.89 in 3.0 mi North 6.9 mph - 0.00 in Snow Light Snow
1:32 AM 30.2 °F 23.4 °F 26.6 °F 86% 29.89 in 4.0 mi North 6.9 mph - 0.00 in Snow Light Snow
1:38 AM 30.2 °F 26.7 °F 26.6 °F 86% 29.89 in 1.8 mi North 3.5 mph - 0.00 in Snow Light Snow
1:43 AM 30.2 °F 22.6 °F 26.6 °F 86% 29.89 in 2.0 mi NNW 8.1 mph - 0.00 in Snow Light Snow
1:53 AM 28.9 °F 19.8 °F 25.0 °F 85% 29.94 in 3.0 mi NNW 10.4 mph - 0.00 in Snow Light Snow
2:17 AM 28.4 °F 21.2 °F 23.0 °F 80% 29.90 in 10.0 mi Variable 6.9 mph - 0.00 in   Overcast
2:53 AM 27.0 °F 19.5 °F 21.9 °F 81% 29.94 in 10.0 mi North 6.9 mph - 0.00 in   Scattered Clouds
3:53 AM 25.0 °F 18.1 °F 21.0 °F 85% 29.92 in 10.0 mi North 5.8 mph - N/A   Clear
4:53 AM 25.0 °F 17.1 °F 19.9 °F 81% 29.93 in 10.0 mi NNW 6.9 mph - N/A   Clear
5:53 AM 24.1 °F 14.4 °F 19.0 °F 81% 29.94 in 10.0 mi North 9.2 mph - N/A   Clear
6:53 AM 23.0 °F 13.9 °F 18.0 °F 81% 29.94 in 10.0 mi NNW 8.1 mph - N/A   Clear
7:53 AM 24.1 °F 13.1 °F 19.0 °F 81% 29.95 in 10.0 mi NNW 11.5 mph - N/A   Scattered Clouds
8:53 AM 24.1 °F 12.5 °F 18.0 °F 77% 29.94 in 10.0 mi NNW 12.7 mph - N/A   Mostly Cloudy
9:53 AM 25.0 °F 14.8 °F 18.0 °F 75% 29.94 in 10.0 mi NNW 10.4 mph - N/A   Mostly Cloudy
10:28 AM 24.8 °F 15.3 °F 19.4 °F 80% 29.87 in 10.0 mi NW 9.2 mph - N/A   Mostly Cloudy
10:53 AM 24.1 °F 15.2 °F 17.1 °F 75% 29.94 in 10.0 mi NW 8.1 mph 18.4 mph N/A   Mostly Cloudy
11:03 AM 24.8 °F 14.0 °F 17.6 °F 74% 29.86 in 10.0 mi NNW 11.5 mph - N/A   Mostly Cloudy
11:51 AM 24.8 °F 13.4 °F 15.8 °F 69% 29.85 in 10.0 mi NW 12.7 mph 19.6 mph N/A   Partly Cloudy
11:53 AM 25.0 °F 14.2 °F 16.0 °F 69% 29.92 in 10.0 mi NNW 11.5 mph 19.6 mph N/A   Partly Cloudy
12:53 PM 25.0 °F 14.2 °F 15.1 °F 66% 29.89 in 10.0 mi NW 11.5 mph 18.4 mph N/A   Partly Cloudy
1:53 PM 25.0 °F 15.5 °F 14.0 °F 63% 29.87 in 10.0 mi NW 9.2 mph - N/A   Mostly Cloudy
2:53 PM 25.0 °F 14.2 °F 12.0 °F 58% 29.87 in 10.0 mi NNW 11.5 mph - N/A   Overcast
3:53 PM 25.0 °F 16.3 °F 12.0 °F 58% 29.86 in 10.0 mi North 8.1 mph - N/A   Overcast
4:53 PM 24.1 °F 15.2 °F 12.0 °F 60% 29.86 in 10.0 mi North 8.1 mph - N/A   Overcast
5:53 PM 23.0 °F 13.1 °F 10.9 °F 60% 29.88 in 10.0 mi NNW 9.2 mph - N/A   Overcast
6:53 PM 23.0 °F 11.1 °F 10.9 °F 60% 29.87 in 10.0 mi NNW 12.7 mph 17.3 mph N/A   Mostly Cloudy
7:53 PM 21.9 °F 8.7 °F 12.9 °F 68% 29.84 in 10.0 mi NNW 15.0 mph 24.2 mph N/A   Mostly Cloudy
8:53 PM 21.9 °F 11.7 °F 12.0 °F 66% 29.83 in 10.0 mi NNW 9.2 mph 18.4 mph N/A   Overcast
9:53 PM 21.0 °F 7.6 °F 8.1 °F 57% 29.83 in 10.0 mi North 15.0 mph 20.7 mph N/A   Mostly Cloudy
10:53 PM 19.9 °F 8.6 °F 7.0 °F 57% 29.81 in 10.0 mi North 10.4 mph - N/A   Overcast
11:53 PM 19.0 °F 7.5 °F 6.1 °F 57% 29.79 in 10.0 mi North 10.4 mph - N/A   Overcast